Location: Cieszkowy
(50.3290°N, 20.5336°E)
Time: 22:54:07
(UTC+00:00)

Cosmos 2228 - Pass Details

Date: 15 June 2024
Orbit: 576 x 604 km, 82.5° (Epoch: 18 July)

Event Time Altitude Azimuth Distance (km) Brightness Sun altitude
Rises 00:07:07 0° 352° (N) 2,875 7.6 -13.8°
Reaches altitude 10° 00:09:23 10° 356° (N) 1,964 6.7 -13.6°
Maximum altitude 00:13:41 62° 77° (ENE) 682 3.4 -13.4°
Enters shadow 00:17:48 11° 159° (SSE) 1,879 5.1 -13.1°
